User: anonymous   Login
Location: Melbourne
(37.8170°S, 144.9670°E)
Time: 22:35:20
(UTC+10:00)
Language:

ERBS - Orbit

View from above orbital plane
View from above orbital plane
View from above satellite
View from above satellite

Ground track
Ground track

The orbit data is extracted from the following two-line orbital elements,

1 15354U 84108B   17206.14454674 +.00001911 +00000-0 +50219-4 0  9993
2 15354 057.0091 334.9399 0012371 151.0834 209.0909 15.43852629803799
Epoch (UTC): 25 July 2017 03:28:08
Eccentricity: 0.0012371
inclination: 57.0091°
perigee height: 426 km
apogee height: 443 km
right ascension of ascending node: 334.9399°
argument of perigee: 151.0834°
revolutions per day: 15.43852629
mean anomaly at epoch: 209.0909°
orbit number at epoch: 80379

The dashed part of the orbit path shows where the satellite is in the earth's shadow,  

DLR